Powrót do katalogu

STARLINK-2518

AktywnyŁącznośćVLEO
NORAD 48333·PAYLOAD·🇺🇸 United States

Wystrzelony Apr 29, 2021 z Cape Canaveral Space Force Station

Loading…

Następne Przeloty (najbliższe 24 godziny)

TLE

ŚwieżeSource: CelesTrak SupGP

Epoka: Sep 14, 2026, 12:49 UTC

1 48333C 21036BK  26257.53451389  .00042413  00000+0  13638-2 0  2576
2 48333  53.1576 302.1970 0001070  75.9302 231.9496 15.31682479    17

Śledź STARLINK-2518 w czasie rzeczywistym z AllMySat

Download on the App Store